This demonstration page uses our WeatherBlox Daily Observations layout. Learn more.

Left ArrowRight Arrow

Hourly Observations for August 11, 2018

Temp ( °F °C ) Dew Point ( °F °C ) Humidity (%) Winds ( mph kmh ) Pressure ( in mb ) Visibility ( mi km ) Precip ( " mm )
12:59 am 00:59 Clear 76 24.4 73 22.8 91 91 Calm 29.92 1013 7 11 0.00 0.00
1:59 am 01:59 Clear 77 25 74 23.3 90 90 S 6 9 29.91 1013 7 11 0.00 0.00
2:59 am 02:59 Clear 77 25 74 23.3 90 90 SW 7 11 29.91 1013 7 11 0.00 0.00
3:59 am 03:59 Mostly Cloudy 77 25 72 22.2 85 85 SW 9 15 29.91 1013 8 13 0.00 0.00
4:59 am 04:59 Mostly Cloudy 76 24.4 70 21.1 82 82 SSW 8 13 29.91 1013 9 14 0.00 0.00
5:59 am 05:59 Mostly Cloudy 75 23.9 68 20 79 79 S 7 11 29.91 1013 10 16 0.00 0.00
6:59 am 06:59 Mostly Cloudy 75 23.9 69 20.6 82 82 S 5 7 29.91 1013 10 16 0.00 0.00
7:59 am 07:59 Mostly Cloudy 77 25 69 20.6 77 77 S 6 9 29.91 1013 10 16 0.00 0.00
8:59 am 08:59 Mostly Cloudy 78 25.6 70 21.1 76 76 SSW 9 15 29.93 1014 9 14 0.00 0.00
9:59 am 09:59 Mostly Cloudy 80 26.7 71 21.7 74 74 SW 8 13 29.95 1014 9 14 0.00 0.00
10:59 am 10:59 Mostly Cloudy 83 28.3 71 21.7 67 67 WSW 8 13 29.95 1014 9 14 0.00 0.00
11:59 am 11:59 Mostly Cloudy 83 28.3 71 21.7 67 67 VRB 3 6 29.96 1014 9 14 0.00 0.00
12:59 pm 12:59 Mostly Cloudy 87 30.6 72 22.2 61 61 E 5 7 29.95 1014 9 14 0.00 0.00
1:59 pm 13:59 Mostly Cloudy 84 28.9 71 21.7 65 65 SE 7 11 29.93 1014 9 14 0.00 0.00
2:59 pm 14:59 Mostly Cloudy 83 28.3 72 22.2 70 70 ENE 9 15 29.90 1013 10 16 0.00 0.00
3:59 pm 15:59 Mostly Cloudy 85 29.4 70 21.1 61 61 E 7 11 29.89 1012 10 16 0.00 0.00
4:08 pm 16:08 Mostly Cloudy with Thunderstorms 85 29.4 69 20.6 59 59 E 10 17 29.88 1012 10 16 0.00 0.00
4:59 pm 16:59 Cloudy with Strong Thunderstorms 78 25.6 73 22.8 85 85 W 10 17 29.93 1014 1 2 0.08 2.03
5:04 pm 17:04 Cloudy with Strong Thunderstorms 78 25.6 74 23.3 87 87 SSW 16 26 29.97 1015 1 1 0.03 0.76
5:12 pm 17:12 Cloudy with Strong Thunderstorms 72 22.2 70 21.1 94 94 SW 22 35 29.97 1015 1 1 0.18 4.57
5:16 pm 17:16 Cloudy with Strong Thunderstorms 72 22.2 69 20.6 91 91 SSW 18 30 29.97 1015 1 1 0.25 6.35
5:31 pm 17:31 Cloudy with Strong Thunderstorms 71 21.7 70 21.1 96 96 Calm 29.97 1015 1 2 0.67 17.02
5:45 pm 17:45 Cloudy with Thunderstorms 71 21.7 69 20.6 94 94 E 7 11 29.94 1014 3 5 0.77 19.56
5:59 pm 17:59 Cloudy with Thunderstorms 72 22.2 69 20.6 91 91 SSE 6 9 29.94 1014 5 8 0.78 19.81
6:41 pm 18:41 Mostly Cloudy with Light Rain 73 22.8 70 21.1 90 90 ENE 3 6 29.94 1014 5 8 0.03 0.76
6:59 pm 18:59 Cloudy 73 22.8 71 21.7 94 94 SE 6 9 29.93 1014 9 14 0.03 0.76
7:59 pm 19:59 Mostly Cloudy 73 22.8 71 21.7 94 94 Calm 29.93 1013 9 14 0.00 0.00
8:59 pm 20:59 Mostly Cloudy 73 22.8 70 21.1 90 90 Calm 29.91 1013 9 14 0.00 0.00
9:59 pm 21:59 Mostly Cloudy 73 22.8 71 21.7 94 94 S 3 6 29.95 1014 8 13 0.00 0.00
10:59 pm 22:59 Clear 74 23.3 72 22.2 94 94 Calm 29.96 1015 10 16 0.00 0.00
11:59 pm 23:59 Cloudy 74 23.3 72 22.2 94 94 Calm 29.97 1015 8 13 0.00 0.00

Powered by AerisWeather